Regional Weather Roundup
Issued by NWS Sterling, VA

Home | Current Version | Previous Version | Text Only | Print | Product List | Glossary Off
Versions: 1 2 3 4 5 6 7 8 9 10 11 12 13 14 15 16 17 18 19 20 21 22 23 24 25 26 27

000
ASUS41 KLWX 232211
RWRLWX

REGIONAL WEATHER ROUNDUP
NATIONAL WEATHER SERVICE BALTIMORE MD/WASHINGTON DC
600 PM EDT SAT JUL 23 2016

Note: "FAIR" indicates few or no clouds below 12,000 feet
with no significant weather and/or obstructions to visibility.
 TC=TEMPERATURE CELSIUS

 * =Non NWS site. Station does not report precipitation (e.g. rain,
    snow, etc.), thunder, or fog.

DCZ001-MDZ009-015-VAZ040>042-051-053>054-232300-
WASHINGTON METRO

CITY           SKY/WX    TMP DP  RH WIND       PRES   REMARKS
WASHINGTON NAT PTSUNNY   96  70  42 SW12      29.86F HX 102
DULLES         FAIR      97  68  38 SW12G20   29.87F HX 102
ANDREWS AFB    SUNNY     94  71  47 SW13      29.86F HX 101
FT BELVOIR     FAIR      96  68  39 SW8       29.87S HX 101
QUANTICO       FAIR      96  70  42 W10       29.88F HX 102
COLLEGE PARK*  FAIR      93  70  46 NW3       29.85F HX  99
LEESBURG*      FAIR      97  72  44 W7        29.89S HX 105
MANASSAS*      SUNNY     95  66  38 SW8       29.88  HX  98
GAITHERSBURG*  CLOUDY    90  72  55 W5        29.91F HX  96

$$

MDZ006>007-011-014-232300-
BALTIMORE METRO

CITY           SKY/WX    TMP DP  RH WIND       PRES   REMARKS
BWI AIRPORT    PTSUNNY   93  69  45 W10       29.85S HX  98
MD SCIENCE CTR   N/A     96  70  42 MISG      29.84F HX 102
MARTIN STATE   MOSUNNY   97  73  46 W12       29.85S HX 107
ANNAPOLIS      MOSUNNY   90  77  65 S7        29.85S HX 103
FORT MEADE*    MOSUNNY   86  73  66 W5        29.88S HX  93

$$

MDZ012-015-019>023-232300-
MARYLAND EASTERN SHORE

CITY           SKY/WX    TMP DP  RH WIND       PRES   REMARKS
OCEAN CITY     MOSUNNY   92  72  51 W9        29.87S HX  99
SALISBURY      SUNNY     91  72  53 SW10      29.88S HX  98
CAMBRIDGE*     SUNNY     90  72  55 S6        29.88R HX  96
EASTON*        PTSUNNY   93  79  62 SW6       29.90S HX 110

$$

MDZ017>025-232300-
SOUTHERN MARYLAND

CITY           SKY/WX    TMP DP  RH WIND       PRES   REMARKS
PATUXENT RIVER MOSUNNY   97  69  40 W16       29.87S HX 103
ST INIGOES     SUNNY     95  73  48 CALM      29.87S HX 104
LEONARDTOWN*   SUNNY     95  68  41 W8G18     29.90S HX  99

$$

MDZ003>005-232300-
NORTH CENTRAL MARYLAND

CITY           SKY/WX    TMP DP  RH WIND       PRES   REMARKS
FREDERICK*     PTSUNNY   88  68  51 NW7       29.91F HX  91
HAGERSTOWN APT MOSUNNY   84  67  56 S6        29.89F

$$

MDZ501>502-232300-
WESTERN MARYLAND

CITY           SKY/WX    TMP DP  RH WIND       PRES   REMARKS
OAKLAND*       CLOUDY    77  68  73 W5        30.09S
CUMBERLAND*    CLOUDY    95  68  41 W3        29.96F HX  99

$$

VAZ025>031-232300-
SHENANDOAH VALLEY

CITY           SKY/WX    TMP DP  RH WIND       PRES   REMARKS
WINCHESTER*    FAIR      95  66  38 W9        29.91S HX  98
FRONT ROYAL*   FAIR      95  70  43 SW5       29.90F HX 101
LURAY*         FAIR      93  66  40 SW7       29.93F HX  96
NEW MARKET*    FAIR     N/A N/A N/A SW3       29.91F
STAUNTON*      FAIR      92  68  45 SW9       29.96F HX  96
WAYNESBORO*    FAIR      92  63  37 SW6       29.98F HX  93

$$

WVZ021-048>050-054>055-232300-
EASTERN WEST VIRGINIA PANHANDLE

CITY           SKY/WX    TMP DP  RH WIND       PRES   REMARKS
MARTINSBURG    FAIR      93  68  43 NE6       29.89F HX  97
PETERSBURG*    FAIR      95  69  41 NW10      29.93S HX 100

$$

VAZ036>039-050-232300-
CENTRAL FOOTHILLS

CITY           SKY/WX    TMP DP  RH WIND       PRES   REMARKS
CHARLOTTESVILL FAIR      96  69  41 S10       29.91F HX 102
CULPEPER*      FAIR      94  74  51 S7        29.89F HX 104
ORANGE*          N/A     95  68  41 S8        29.93S HX  99
GORDONSVILLE*  FAIR      95  72  46 SW7       29.90S HX 103
WARRENTON*     FAIR      95  63  34 SW6       29.89F HX  96

$$

VAZ055>057-232300-
NORTH AND CENTRAL PIEDMONT

CITY           SKY/WX    TMP DP  RH WIND       PRES   REMARKS
FREDERICKSBRG*   N/A     96  72  46 SW7       29.88S HX 104
STAFFORD*      FAIR      95  67  39 SW6       29.93S HX  98

$$

NCZ024-NYZ072-PAZ021-071-VAZ022-071-232300-
OTHER REGIONAL OBSERVATIONS

CITY           SKY/WX    TMP DP  RH WIND       PRES   REMARKS
NEW YORK CITY  SUNNY     92  59  33 MISG      29.81F HX  91
PHILADELPHIA   CLOUDY    82  70  66 E13       29.86R THUNDER
PITTSBURGH     PTSUNNY   84  69  60 S7        29.96S
ROANOKE        FAIR      94  66  39 SE6       30.00S HX  97
RICHMOND       FAIR      92  73  53 SW10      29.90F HX 100
RALEIGH        MOSUNNY   89  75  63 SW5       29.95F HX  99

$$

ANZ530>537-232300-
MARINE OBSERVATIONS

STATION/POSITION TIME  TEMP    WIND        PRES
                       AIR SEA DIR/SP/G
                 (UTC) (F)     (DEG/KT/KT) (MB)
THOMAS PT LIGHT  2200   87 83  180/ 10/ 11 1012.3S
BALT KEY BRIDGE  2142   93     220/ 14/ 17 1010.1F
COVE POINT       2148   94     290/  7/ 11 1012.1F
LEWISETTA        2142   94     260/ 10/ 12 1011.2F
SOLOMONS ISLAND  2148   93     250/ 10/ 13   N/A
PINEY POINT      2142          140/  3/  3   N/A

$$





USA.gov is the U.S. government's official web portal to all federal, state and local government web resources and services.